{"data":{"norad_id":41310,"intl_designator":"2016-005A","name":"EUTELSAT 9B","alt_names":[],"object_type":"PAYLOAD","status":"ACTIVE","operator":null,"country":"EUTE","launch_date":"2016-01-29","launch_site_code":"TYMSC","launch_vehicle":null,"mission":null,"orbit_class":"UNKNOWN","rcs_meters":39.9052,"size_class":null,"mass_kg":null,"dimensions":null,"purposes":["comms"],"wikipedia_slug":null,"has_3d_model":false,"image_url":null,"decayed_at":null,"tle_current":{"epoch":"2026-09-20T03:16:42.860352Z","epoch_age_seconds":53326,"freshness":"FRESH","line1":"1 41310U 16005A   26263.13660718  .00000057  00000+0  00000+0 0  9992","line2":"2 41310   0.0463  64.2962 0002456 148.2997 204.6220  1.00271324 39064","mean_motion":1.00271324,"eccentricity":0.0002456,"inclination_deg":0.0463,"raan_deg":64.2962,"arg_perigee_deg":148.2997,"mean_anomaly_deg":204.622,"bstar":0,"rev_number":3906,"period_min":1436.103506522,"perigee_km":35776.368506811,"apogee_km":35797.079886631,"semimajor_km":42164.861196721,"source":"CELESTRAK","updated_at":"2026-09-20T09:00:35.223212Z"}}}